Weather History for Grey Islet, BC

Change the Weather History Date:

Wednesday, December 5, 2012

  Actual Average Record
Temperature  
Mean Temperature 38 °F -  
Max Temperature 41 °F - - ()
Min Temperature 36 °F - - ()
Degree Days  
Heating Degree Days 26    
Moisture  
Dew Point 34 °F    
Average Humidity 81    
Maximum Humidity 95    
Minimum Humidity 62    
Precipitation  
Precipitation 0.08 in - - ()
Sea Level Pressure  
Sea Level Pressure 29.69 in    
Wind  
Wind Speed 18 mph ()    
Max Wind Speed 30 mph    
Max Gust Speed 37 mph    
T = Trace of Precipitation, MM = Missing Value Source: Averaged Metar Reports

Daily Weather History Graph

Daily Weather History Graph

Search for Another Location

Airport:

Trip Planner

Search our weather history database for the weather conditions in past years. The results will help you decide how hot, cold, wet, or windy it might be!

Date:

Astronomy

Dec. 05, 2012 Rise Set
Actual Time 8:48 AM PST 4:18 PM PST
Civil Twilight 8:04 AM PST 5:02 PM PST
Nautical Twilight 7:18 AM PST 5:48 PM PST
Astronomical Twilight 6:34 AM PST 6:32 PM PST
Moon No Moon Rise 12:28 PM PST (12/5)
Length of Visible Light 8h 58m
Length of Day
7h 30m
Waning Gibbous, 58% of the Moon is Illuminated
Dec 5
Waning Gibbous
Dec 6
Last Quarter
Dec 13
New
Dec 19
First Quarter
Dec 28
Full

Hourly Weather History & Observations

Time (PST) Temp. Windchill Dew Point Humidity Pressure Visibility Wind Dir Wind Speed Gust Speed Precip Events Conditions
12:00 AM 38.8 °F 33.2 °F 35.2 °F 87% 29.44 in - East 8.1 mph - N/A   Unknown
1:00 AM 38.8 °F 29.7 °F 35.1 °F 86% 29.45 in - SSE 17.3 mph 23.0 mph 0.02 in   Unknown
2:00 AM 40.1 °F 30.7 °F 35.2 °F 83% 29.48 in - South 19.6 mph - N/A   Unknown
3:00 AM 38.1 °F 28.1 °F 35.1 °F 89% 29.52 in - South 19.6 mph - 0.03 in   Unknown
4:00 AM 37 °F - 35 °F 92% 29.55 in - SSE 19.6 mph - -  
4:00 AM 36.9 °F 26.5 °F 35.4 °F 95% 29.55 in - SSE 19.6 mph - 0.02 in   Unknown
7:00 AM 41.0 °F 32.5 °F 36.9 °F 85% 29.62 in - South 17.3 mph - N/A   Unknown
8:00 AM 38.3 °F 26.2 °F 34.5 °F 86% 29.64 in - South 29.9 mph 36.8 mph N/A   Unknown
9:00 AM 40.1 °F 29.5 °F 35.2 °F 83% 29.66 in - SSE 25.3 mph - N/A   Unknown
10:00 AM 39 °F - 35 °F 78% 29.67 in - SSE 28.8 mph - -  
10:00 AM 39.4 °F 27.9 °F 34.5 °F 83% 29.67 in - SSE 28.8 mph - N/A   Unknown
11:00 AM 40.5 °F 29.3 °F 34.3 °F 79% 29.68 in - SSE 28.8 mph - N/A   Unknown
12:00 PM 37.9 °F 25.7 °F 36.3 °F 94% 29.69 in - SSE 29.9 mph - N/A   Unknown
1:00 PM 37.4 °F 27.2 °F 35.6 °F 93% 29.71 in - SSE 19.6 mph - 0.03 in   Unknown
2:00 PM 38.1 °F 25.9 °F 36.3 °F 93% 29.71 in - SSE 29.9 mph 36.8 mph 0.05 in   Unknown
3:00 PM 41.2 °F 32.1 °F 34.9 °F 78% 29.74 in - SSW 19.6 mph - N/A   Unknown
4:00 PM 40 °F - 33 °F 67% 29.76 in - SSW 19.6 mph - -  
4:00 PM 40.5 °F 31.2 °F 32.9 °F 74% 29.76 in - SSW 19.6 mph - N/A   Unknown
5:00 PM 40.8 °F 31.1 °F 33.6 °F 76% 29.78 in - SSW 21.9 mph - N/A   Unknown
6:00 PM 40.5 °F 30.9 °F 33.8 °F 77% 29.78 in - SSW 20.7 mph - N/A   Unknown
7:00 PM 39.6 °F 31.7 °F 32.0 °F 74% 29.81 in - WSW 13.8 mph - N/A   Unknown
8:00 PM 40.3 °F 32.2 °F 31.3 °F 70% 29.82 in - SSW 15.0 mph - N/A   Unknown
9:00 PM 40.5 °F 32.1 °F 33.6 °F 77% 29.83 in - South 16.1 mph - N/A   Unknown
10:00 PM 41 °F - 33 °F 62% 29.84 in - South 16.1 mph - -  
10:00 PM 40.8 °F 32.6 °F 31.5 °F 69% 29.84 in - South 16.1 mph - N/A   Unknown
11:00 PM 40.5 °F 30.7 °F 36.3 °F 85% 29.84 in - South 21.9 mph - 0.01 in   Unknown